Location: Alpha Ridge Park
(39.3209°N, 76.9128°W)
Time: 21:32:06
(UTC-04:00)

S-56A Canister/Altair - Pass Details

Date: 21 May 2019
Orbit: 633 x 2499 km, 38.9° (Epoch: 14 June)

Event Time Altitude Azimuth Distance (km) Brightness Sun altitude
Rises 07:18:50 0° 282° (WNW) 4,537 10.9 15.4°
Reaches altitude 10° 07:21:28 10° 280° (W) 3,776 10.6 15.8°
Maximum altitude 07:31:47 72° 199° (SSW) 2,129 9.9 17.8°
Drops below altitude 10° 07:46:10 10° 119° (ESE) 5,093 12.7 20.5°
Sets 07:50:20 0° 118° (ESE) 6,162 13.0 21.3°
